^^
Saratoga-Weather Station Historical Data
Daily Summary for January 27, 2022 Units:  English    Metric   Both
Daily Weekly Monthly Yearly Custom
  High: Low: Average:
Temperature: 35.8 °F 31.1 °F 33.3 °F
Dew Point: 34.5 °F 29.7 °F 31.8 °F
Humidity: 95% 93% 94%
Wind Speed: 12.1mph 0mph 2.7mph
Wind Gust: 14mph - -
Wind- - West
Pressure: 30.5 in 30.4 in -
Precipitation: 0.01 in    
Historical Graphs
 
 
Tabular Data for January 27, 2022
Time Temperature Dew Point Pressure Wind Wind Speed Wind Gust Humidity Rainfall Rate (Hourly) solar
00:01 31.6 °F 30.2 °F 30.5 in WSW 4 mph 4 mph 94% 0 in 0 W/m2
00:06 31.6 °F 30.2 °F 30.5 in WNW 2 mph 3 mph 94% 0 in 0 W/m2
00:11 31.6 °F 30.2 °F 30.5 in WNW 2 mph 2 mph 94% 0 in 0 W/m2
00:16 31.6 °F 30.2 °F 30.5 in West 0.9 mph 4 mph 94% 0 in 0 W/m2
00:21 31.6 °F 30.2 °F 30.5 in West 2.9 mph 4 mph 94% 0 in 0 W/m2
00:26 31.6 °F 30.2 °F 30.5 in WNW 0.9 mph 4 mph 94% 0 in 0 W/m2
00:31 31.6 °F 30.2 °F 30.5 in West 2 mph 4 mph 94% 0 in 0 W/m2
00:36 31.6 °F 30.2 °F 30.5 in NW 2.9 mph 7 mph 94% 0 in 0 W/m2
00:41 31.6 °F 30.2 °F 30.5 in WSW 4 mph 4 mph 94% 0 in 0 W/m2
00:46 31.6 °F 30.2 °F 30.5 in NW 4 mph 6 mph 94% 0 in 0 W/m2
00:52 31.6 °F 30.2 °F 30.5 in WSW 4 mph 7 mph 94% 0 in 0 W/m2
00:57 31.6 °F 30.2 °F 30.5 in West 6 mph 8 mph 94% 0 in 0 W/m2
01:02 31.6 °F 30.2 °F 30.5 in WNW 2 mph 3 mph 94% 0 in 0 W/m2
01:07 31.6 °F 30.2 °F 30.5 in NW 2 mph 4 mph 94% 0 in 0 W/m2
01:12 31.8 °F 30.4 °F 30.5 in NNW 2 mph 4 mph 94% 0 in 0 W/m2
01:17 31.8 °F 30.4 °F 30.5 in WSW 2 mph 3 mph 94% 0 in 0 W/m2
01:22 31.8 °F 30.4 °F 30.5 in NW 2.9 mph 5 mph 94% 0 in 0 W/m2
01:27 31.8 °F 30.4 °F 30.5 in Calm   2 mph 94% 0 in 0 W/m2
01:32 31.8 °F 30.4 °F 30.5 in West 0.9 mph 4 mph 94% 0 in 0 W/m2
01:37 31.8 °F 30.4 °F 30.5 in West 0.9 mph 4 mph 94% 0 in 0 W/m2
01:42 31.8 °F 30.4 °F 30.5 in WNW 2 mph 8 mph 94% 0 in 0 W/m2
01:47 31.8 °F 30.4 °F 30.5 in West 2 mph 3 mph 94% 0 in 0 W/m2
01:52 31.8 °F 30.4 °F 30.5 in West 2.9 mph 8 mph 94% 0 in 0 W/m2
01:57 31.8 °F 30.4 °F 30.5 in West 0.9 mph 6 mph 94% 0 in 0 W/m2
02:02 31.8 °F 30.4 °F 30.5 in West 2.9 mph 4 mph 94% 0 in 0 W/m2
02:07 31.8 °F 30.4 °F 30.5 in NW 6 mph 10 mph 94% 0 in 0 W/m2
02:12 31.8 °F 30.4 °F 30.5 in NW 0.9 mph 4 mph 94% 0 in 0 W/m2
02:17 31.8 °F 30.4 °F 30.5 in WNW 0.9 mph 2 mph 94% 0 in 0 W/m2
02:22 31.8 °F 30.4 °F 30.5 in SW 4 mph 4 mph 94% 0 in 0 W/m2
02:27 31.8 °F 30.4 °F 30.5 in WNW 4.9 mph 7 mph 94% 0 in 0 W/m2
02:32 31.8 °F 30.4 °F 30.5 in NW 2.9 mph 9 mph 94% 0 in 0 W/m2
02:37 31.8 °F 30.4 °F 30.5 in West 6 mph 8 mph 94% 0 in 0 W/m2
02:42 31.8 °F 30.4 °F 30.5 in WNW 2 mph 6 mph 94% 0 in 0 W/m2
02:47 31.8 °F 30.4 °F 30.5 in West 2 mph 3 mph 94% 0 in 0 W/m2
02:52 32 °F 30.6 °F 30.5 in NW 2 mph 6 mph 94% 0 in 0 W/m2
02:57 32 °F 30.6 °F 30.5 in SW 4.9 mph 5 mph 94% 0 in 0 W/m2
03:02 32 °F 30.6 °F 30.5 in West 2.9 mph 6 mph 94% 0 in 0 W/m2
03:07 32.2 °F 30.6 °F 30.5 in WNW 0.9 mph 4 mph 94% 0 in 0 W/m2
03:12 32.2 °F 30.4 °F 30.5 in NW 2 mph 3 mph 93% 0 in 0 W/m2
03:17 32.2 °F 30.4 °F 30.5 in WNW 4 mph 8 mph 93% 0 in 0 W/m2
03:22 32.2 °F 30.4 °F 30.5 in WNW 0.9 mph 5 mph 93% 0 in 0 W/m2
03:27 32.2 °F 30.4 °F 30.5 in WNW 2 mph 4 mph 93% 0 in 0 W/m2
03:32 32.4 °F 30.6 °F 30.5 in West 4 mph 6 mph 93% 0 in 0 W/m2
03:37 32.2 °F 30.4 °F 30.5 in WSW 4.9 mph 6 mph 93% 0 in 0 W/m2
03:42 32.2 °F 30.4 °F 30.5 in WNW 2 mph 3 mph 93% 0 in 0 W/m2
03:47 32.2 °F 30.4 °F 30.5 in West 4 mph 9 mph 93% 0 in 0 W/m2
03:52 32.2 °F 30.4 °F 30.5 in West 2 mph 8 mph 93% 0 in 0 W/m2
03:57 32.2 °F 30.4 °F 30.5 in West 2 mph 10 mph 93% 0 in 0 W/m2
04:02 32.2 °F 30.4 °F 30.5 in West 2 mph 6 mph 93% 0 in 0 W/m2
04:07 32.2 °F 30.4 °F 30.5 in WNW 4 mph 10 mph 93% 0 in 0 W/m2
04:12 32.2 °F 30.4 °F 30.5 in West 11 mph 12 mph 93% 0 in 0 W/m2
04:17 32.2 °F 30.4 °F 30.5 in West 2 mph 9 mph 93% 0 in 0 W/m2
04:22 32.2 °F 30.4 °F 30.4 in NNW 8.1 mph 12 mph 93% 0 in 0 W/m2
04:27 32.2 °F 30.4 °F 30.4 in WSW 2.9 mph 10 mph 93% 0 in 0 W/m2
04:32 32.2 °F 30.4 °F 30.5 in West 8.1 mph 10 mph 93% 0 in 0 W/m2
04:37 32.2 °F 30.4 °F 30.5 in West 6 mph 11 mph 93% 0 in 0 W/m2
04:42 32.2 °F 30.4 °F 30.4 in West 6.9 mph 7 mph 93% 0 in 0 W/m2
04:47 32.2 °F 30.4 °F 30.4 in NW 4 mph 11 mph 93% 0 in 0 W/m2
04:52 32.2 °F 30.4 °F 30.4 in West 2 mph 4 mph 93% 0 in 0 W/m2
04:57 32.2 °F 30.4 °F 30.4 in West 0.9 mph 9 mph 93% 0 in 0 W/m2
05:02 32.2 °F 30.4 °F 30.4 in WSW 4 mph 7 mph 93% 0 in 0 W/m2
05:07 32.2 °F 30.6 °F 30.4 in West 2 mph 10 mph 94% 0 in 0 W/m2
05:12 32.2 °F 30.6 °F 30.4 in West 2.9 mph 3 mph 94% 0 in 0 W/m2
05:17 32.2 °F 30.6 °F 30.4 in WSW 2.9 mph 10 mph 94% 0 in 0 W/m2
05:22 32 °F 30.6 °F 30.4 in Calm   2 mph 94% 0 in 0 W/m2
05:27 32 °F 30.6 °F 30.4 in WNW 0.9 mph 3 mph 94% 0 in 0 W/m2
05:32 32 °F 30.6 °F 30.4 in Calm   2 mph 94% 0 in 0 W/m2
05:37 32 °F 30.6 °F 30.4 in Calm   3 mph 94% 0 in 0 W/m2
05:42 32 °F 30.6 °F 30.4 in Calm   2 mph 94% 0 in 0 W/m2
05:47 32 °F 30.6 °F 30.4 in West 0.9 mph 2 mph 94% 0 in 0 W/m2
05:52 31.8 °F 30.4 °F 30.4 in Calm   1 mph 94% 0 in 0 W/m2
05:57 31.8 °F 30.4 °F 30.4 in North 2 mph 2 mph 94% 0 in 0 W/m2
06:02 31.8 °F 30.4 °F 30.4 in WNW 2 mph 5 mph 94% 0 in 0 W/m2
06:07 31.8 °F 30.4 °F 30.4 in South 2 mph 4 mph 94% 0 in 0 W/m2
06:12 31.8 °F 30.4 °F 30.4 in West 2 mph 5 mph 94% 0 in 0 W/m2
06:17 31.6 °F 30.2 °F 30.4 in SW 2.9 mph 6 mph 94% 0 in 0 W/m2
06:22 31.6 °F 30.2 °F 30.4 in WNW 2 mph 2 mph 94% 0 in 0 W/m2
06:27 31.6 °F 30.2 °F 30.4 in SE 0.9 mph 3 mph 94% 0 in 0 W/m2
06:32 31.5 °F 30 °F 30.4 in NW 2 mph 5 mph 94% 0 in 0 W/m2
06:37 31.5 °F 30 °F 30.4 in Calm   2 mph 94% 0 in 0 W/m2
06:42 31.5 °F 30 °F 30.4 in Calm   5 mph 94% 0 in 0 W/m2
06:47 31.5 °F 30 °F 30.4 in Calm   2 mph 94% 0 in 0 W/m2
06:52 31.5 °F 30 °F 30.4 in NW 0.9 mph 5 mph 94% 0 in 0 W/m2
06:57 31.3 °F 29.8 °F 30.4 in West 2.9 mph 4 mph 94% 0 in 0 W/m2
07:02 31.3 °F 29.8 °F 30.4 in Calm   1 mph 94% 0 in 0 W/m2
07:07 31.3 °F 30 °F 30.4 in SE 2 mph 4 mph 95% 0 in 0 W/m2
07:12 31.3 °F 29.8 °F 30.4 in North 0.9 mph 5 mph 94% 0 in 0 W/m2
07:17 31.1 °F 29.7 °F 30.4 in ESE 2 mph 2 mph 94% 0 in 0 W/m2
07:22 31.1 °F 29.7 °F 30.4 in Calm   2 mph 94% 0 in 0 W/m2
07:27 31.1 °F 29.7 °F 30.4 in Calm   3 mph 94% 0 in 0 W/m2
07:32 31.1 °F 29.7 °F 30.4 in Calm   3 mph 94% 0 in 0 W/m2
07:37 31.1 °F 29.7 °F 30.4 in NW 2 mph 2 mph 94% 0 in 0 W/m2
07:42 31.1 °F 29.7 °F 30.4 in NW 2 mph 2 mph 94% 0 in 0 W/m2
07:47 31.1 °F 29.7 °F 30.4 in North 2 mph 2 mph 94% 0 in 0 W/m2
07:52 31.1 °F 29.7 °F 30.4 in WSW 4 mph 7 mph 94% 0 in 0 W/m2
07:57 31.1 °F 29.7 °F 30.4 in NW 2 mph 2 mph 94% 0 in 0 W/m2
08:02 31.1 °F 29.7 °F 30.4 in WNW 4 mph 4 mph 94% 0 in 0 W/m2
08:07 31.1 °F 29.7 °F 30.4 in Calm   2 mph 94% 0 in 0 W/m2
08:12 31.1 °F 29.7 °F 30.4 in North 0.9 mph 2 mph 94% 0 in 0 W/m2
08:17 31.3 °F 29.8 °F 30.4 in Calm   2 mph 94% 0 in 0 W/m2
08:22 31.3 °F 29.8 °F 30.4 in West 2.9 mph 8 mph 94% 0 in 0 W/m2
08:27 31.3 °F 29.8 °F 30.4 in Calm   2 mph 94% 0 in 0 W/m2
08:32 31.3 °F 30 °F 30.4 in NW 2 mph 8 mph 95% 0 in 0 W/m2
08:37 31.3 °F 30 °F 30.4 in SW 2 mph 3 mph 95% 0 in 0 W/m2
08:42 31.3 °F 29.8 °F 30.4 in NW 2 mph 4 mph 94% 0 in 5 W/m2
08:47 31.5 °F 30.2 °F 30.4 in WSW 4.9 mph 6 mph 95% 0 in 5 W/m2
08:52 31.5 °F 30.2 °F 30.4 in NNE 0.9 mph 4 mph 95% 0 in 7 W/m2
08:57 31.5 °F 30.2 °F 30.4 in West 2 mph 4 mph 95% 0 in 7 W/m2
09:02 31.5 °F 30.2 °F 30.4 in NNW 0.9 mph 3 mph 95% 0 in 7 W/m2
09:07 31.5 °F 30.2 °F 30.4 in SW 0.9 mph 8 mph 95% 0 in 9 W/m2
09:12 31.5 °F 30.2 °F 30.4 in NW 0.9 mph 3 mph 95% 0 in 11 W/m2
09:17 31.6 °F 30.4 °F 30.4 in NW 0.9 mph 8 mph 95% 0 in 12 W/m2
09:22 31.6 °F 30.4 °F 30.4 in SE 0.9 mph 3 mph 95% 0 in 12 W/m2
09:27 31.6 °F 30.4 °F 30.4 in WSW 2.9 mph 3 mph 95% 0 in 12 W/m2
09:32 31.6 °F 30.4 °F 30.4 in West 0.9 mph 2 mph 95% 0 in 19 W/m2
09:37 31.6 °F 30.4 °F 30.4 in West 0.9 mph 3 mph 95% 0 in 21 W/m2
09:42 31.6 °F 30.4 °F 30.4 in Calm   4 mph 95% 0 in 19 W/m2
09:47 31.6 °F 30.4 °F 30.4 in NNW 2 mph 2 mph 95% 0 in 14 W/m2
09:52 31.8 °F 30.6 °F 30.4 in NNW 0.9 mph 2 mph 95% 0 in 14 W/m2
09:57 31.8 °F 30.6 °F 30.4 in WSW 0.9 mph 6 mph 95% 0 in 18 W/m2
10:02 31.8 °F 30.6 °F 30.4 in NNW 2 mph 5 mph 95% 0 in 21 W/m2
10:08 31.8 °F 30.6 °F 30.4 in WNW 0.9 mph 6 mph 95% 0 in 21 W/m2
10:13 31.8 °F 30.6 °F 30.4 in WNW 2 mph 4 mph 95% 0 in 26 W/m2
10:18 31.8 °F 30.6 °F 30.4 in WNW 2 mph 8 mph 95% 0 in 26 W/m2
10:23 32 °F 30.7 °F 30.4 in NNW 2.9 mph 4 mph 95% 0 in 30 W/m2
10:28 32 °F 30.7 °F 30.4 in West 6 mph 6 mph 95% 0 in 33 W/m2
10:33 32 °F 30.6 °F 30.4 in WSW 2 mph 3 mph 94% 0 in 35 W/m2
10:38 32.2 °F 30.6 °F 30.4 in Calm   2 mph 94% 0 in 33 W/m2
10:43 32.2 °F 30.6 °F 30.4 in WNW 0.9 mph 2 mph 94% 0 in 35 W/m2
10:48 32.2 °F 30.6 °F 30.4 in North 4 mph 4 mph 94% 0 in 39 W/m2
10:53 32.2 °F 30.6 °F 30.4 in West 2 mph 3 mph 94% 0 in 53 W/m2
10:58 32.4 °F 30.7 °F 30.4 in Calm   2 mph 94% 0 in 60 W/m2
11:03 32.4 °F 30.7 °F 30.4 in Calm   2 mph 94% 0 in 60 W/m2
11:08 32.4 °F 30.7 °F 30.4 in NW 2.9 mph 6 mph 94% 0 in 53 W/m2
11:13 32.5 °F 30.9 °F 30.4 in SSW 0.9 mph 9 mph 94% 0 in 58 W/m2
11:18 32.5 °F 30.9 °F 30.4 in WSW 2.9 mph 11 mph 94% 0 in 70 W/m2
11:23 32.5 °F 30.9 °F 30.4 in WSW 2.9 mph 7 mph 94% 0 in 84 W/m2
11:28 32.7 °F 31.1 °F 30.4 in WNW 6.9 mph 10 mph 94% 0 in 102 W/m2
11:33 32.7 °F 31.1 °F 30.4 in NW 2.9 mph 7 mph 94% 0 in 114 W/m2
11:38 32.9 °F 31.3 °F 30.4 in SW 2 mph 6 mph 94% 0 in 79 W/m2
11:43 32.9 °F 31.3 °F 30.4 in WSW 2 mph 7 mph 94% 0 in 72 W/m2
11:48 33.1 °F 31.5 °F 30.4 in East 0.9 mph 7 mph 94% 0 in 74 W/m2
11:53 33.1 °F 31.5 °F 30.4 in SW 4 mph 7 mph 94% 0 in 107 W/m2
11:58 33.1 °F 31.5 °F 30.4 in WNW 2 mph 8 mph 94% 0 in 95 W/m2
12:03 33.3 °F 31.6 °F 30.4 in West 0.9 mph 6 mph 94% 0 in 83 W/m2
12:08 33.3 °F 31.6 °F 30.4 in WNW 8.1 mph 9 mph 94% 0 in 72 W/m2
12:13 33.3 °F 31.5 °F 30.4 in West 2 mph 9 mph 93% 0 in 88 W/m2
12:18 33.4 °F 31.8 °F 30.4 in SW 2 mph 5 mph 94% 0 in 98 W/m2
12:23 33.4 °F 31.6 °F 30.4 in NNW 4 mph 5 mph 93% 0 in 113 W/m2
12:28 33.4 °F 31.8 °F 30.4 in WNW 2 mph 10 mph 94% 0 in 116 W/m2
12:33 33.6 °F 32 °F 30.4 in WNW 4 mph 12 mph 94% 0 in 121 W/m2
12:38 33.6 °F 32 °F 30.4 in NNW 2.9 mph 5 mph 94% 0 in 120 W/m2
12:43 33.6 °F 32 °F 30.4 in NW 8.1 mph 12 mph 94% 0 in 128 W/m2
12:48 33.6 °F 32 °F 30.4 in WNW 0.9 mph 4 mph 94% 0 in 97 W/m2
12:53 33.8 °F 32.2 °F 30.4 in NW 2.9 mph 11 mph 94% 0 in 84 W/m2
12:58 33.8 °F 32.2 °F 30.4 in West 0.9 mph 7 mph 94% 0 in 91 W/m2
13:03 33.8 °F 32.2 °F 30.4 in WNW 2.9 mph 11 mph 94% 0 in 132 W/m2
13:08 33.8 °F 32.2 °F 30.4 in NW 2.9 mph 8 mph 94% 0 in 142 W/m2
13:13 34 °F 32.4 °F 30.4 in SSW 4 mph 11 mph 94% 0 in 155 W/m2
13:18 34.2 °F 32.5 °F 30.4 in North 4 mph 4 mph 94% 0 in 155 W/m2
13:23 34.2 °F 32.5 °F 30.4 in NW 0.9 mph 4 mph 94% 0 in 218 W/m2
13:28 34.3 °F 32.7 °F 30.4 in WNW 4 mph 8 mph 94% 0 in 216 W/m2
13:33 34.3 °F 32.7 °F 30.4 in NW 0.9 mph 9 mph 94% 0 in 169 W/m2
13:38 34.3 °F 32.7 °F 30.4 in NW 0.9 mph 2 mph 94% 0 in 83 W/m2
13:43 34.3 °F 32.7 °F 30.4 in Calm   9 mph 94% 0 in 54 W/m2
13:48 34.3 °F 32.7 °F 30.4 in West 6 mph 8 mph 94% 0 in 83 W/m2
13:53 34.2 °F 32.5 °F 30.4 in North 0.9 mph 6 mph 94% 0 in 72 W/m2
13:58 34.2 °F 32.5 °F 30.4 in WNW 2 mph 10 mph 94% 0 in 95 W/m2
14:03 34.2 °F 32.5 °F 30.4 in Calm   3 mph 94% 0 in 86 W/m2
14:08 34.2 °F 32.5 °F 30.4 in Calm   4 mph 94% 0 in 81 W/m2
14:13 34.2 °F 32.5 °F 30.4 in West 2.9 mph 4 mph 94% 0 in 69 W/m2
14:18 34.2 °F 32.5 °F 30.4 in WNW 2.9 mph 4 mph 94% 0 in 54 W/m2
14:23 34.2 °F 32.5 °F 30.4 in NNW 2 mph 4 mph 94% 0 in 69 W/m2
14:28 34.2 °F 32.5 °F 30.4 in NW 0.9 mph 4 mph 94% 0 in 69 W/m2
14:33 34.3 °F 32.7 °F 30.4 in WNW 2 mph 3 mph 94% 0 in 56 W/m2
14:38 34.3 °F 32.7 °F 30.4 in Calm   1 mph 94% 0 in 49 W/m2
14:43 34.3 °F 32.7 °F 30.4 in North 0.9 mph 4 mph 94% 0 in 67 W/m2
14:48 34.3 °F 32.7 °F 30.4 in ESE 0.9 mph 4 mph 94% 0 in 76 W/m2
14:53 34.5 °F 32.9 °F 30.4 in WNW 6 mph 6 mph 94% 0 in 60 W/m2
14:58 34.5 °F 32.9 °F 30.4 in WNW 2.9 mph 4 mph 94% 0 in 60 W/m2
15:03 34.5 °F 32.9 °F 30.4 in ESE 2 mph 3 mph 94% 0 in 88 W/m2
15:08 34.5 °F 32.9 °F 30.4 in NW 4 mph 9 mph 94% 0 in 72 W/m2
15:13 34.5 °F 32.9 °F 30.4 in WNW 0.9 mph 4 mph 94% 0 in 56 W/m2
15:18 34.5 °F 32.9 °F 30.4 in WNW 2 mph 5 mph 94% 0 in 49 W/m2
15:23 34.5 °F 32.9 °F 30.4 in NNE 2.9 mph 5 mph 94% 0 in 39 W/m2
15:28 34.5 °F 32.9 °F 30.4 in West 2 mph 3 mph 94% 0 in 32 W/m2
15:33 34.5 °F 32.9 °F 30.4 in Calm   3 mph 94% 0 in 39 W/m2
15:38 34.5 °F 32.9 °F 30.4 in North 2 mph 3 mph 94% 0 in 33 W/m2
15:43 34.5 °F 32.9 °F 30.4 in NW 2.9 mph 8 mph 94% 0 in 39 W/m2
15:48 34.5 °F 32.9 °F 30.4 in WNW 12.1 mph 12 mph 94% 0 in 44 W/m2
15:53 34.5 °F 32.9 °F 30.4 in South 0.9 mph 3 mph 94% 0 in 46 W/m2
15:58 34.5 °F 32.9 °F 30.4 in NW 12 mph 12 mph 94% 0 in 40 W/m2
16:03 34.5 °F 32.9 °F 30.4 in WSW 0.9 mph 4 mph 94% 0 in 32 W/m2
16:08 34.7 °F 33.1 °F 30.4 in SE 0.9 mph 9 mph 94% 0 in 28 W/m2
16:13 34.5 °F 32.9 °F 30.4 in NE 0.9 mph 2 mph 94% 0 in 21 W/m2
16:18 34.5 °F 32.9 °F 30.4 in South 2 mph 9 mph 94% 0 in 19 W/m2
16:23 34.5 °F 32.9 °F 30.4 in WSW 0.9 mph 8 mph 94% 0 in 19 W/m2
16:28 34.5 °F 32.9 °F 30.4 in Calm   4 mph 94% 0 in 19 W/m2
16:33 34.5 °F 32.9 °F 30.4 in NW 2.9 mph 5 mph 94% 0 in 19 W/m2
16:38 34.5 °F 32.9 °F 30.4 in NW 2 mph 3 mph 94% 0 in 18 W/m2
16:43 34.7 °F 33.1 °F 30.4 in NW 2.9 mph 10 mph 94% 0 in 16 W/m2
16:48 34.7 °F 33.1 °F 30.4 in NW 2 mph 7 mph 94% 0 in 16 W/m2
16:53 34.7 °F 33.1 °F 30.4 in WNW 4.9 mph 10 mph 94% 0 in 12 W/m2
16:58 34.7 °F 33.1 °F 30.4 in WNW 6 mph 6 mph 94% 0 in 9 W/m2
17:03 34.7 °F 33.1 °F 30.4 in WNW 2 mph 8 mph 94% 0 in 7 W/m2
17:08 34.7 °F 33.1 °F 30.4 in WNW 4 mph 8 mph 94% 0 in 5 W/m2
17:13 34.5 °F 32.9 °F 30.4 in West 2.9 mph 8 mph 94% 0 in 0 W/m2
17:18 34.5 °F 32.9 °F 30.4 in WNW 0.9 mph 8 mph 94% 0 in 0 W/m2
17:23 34.5 °F 32.9 °F 30.4 in West 2.9 mph 9 mph 94% 0 in 0 W/m2
17:28 34.5 °F 32.9 °F 30.4 in West 2 mph 10 mph 94% 0 in 0 W/m2
17:33 34.5 °F 32.9 °F 30.4 in NW 8.1 mph 8 mph 94% 0 in 0 W/m2
17:38 34.5 °F 33.3 °F 30.4 in NNW 2.9 mph 9 mph 95% 0 in 0 W/m2
17:43 34.5 °F 33.3 °F 30.4 in NW 2 mph 6 mph 95% 0 in 0 W/m2
17:48 34.5 °F 33.3 °F 30.4 in WSW 4.9 mph 6 mph 95% 0 in 0 W/m2
17:53 34.5 °F 32.9 °F 30.4 in NNW 2 mph 9 mph 94% 0 in 0 W/m2
17:58 34.5 °F 33.3 °F 30.4 in NW 2 mph 8 mph 95% 0.01 in 0 W/m2
18:03 34.5 °F 32.9 °F 30.4 in WNW 4.9 mph 11 mph 94% 0.01 in 0 W/m2
18:08 34.3 °F 32.7 °F 30.4 in NW 2.9 mph 9 mph 94% 0.01 in 0 W/m2
18:13 34.5 °F 32.9 °F 30.4 in NNW 4 mph 11 mph 94% 0.01 in 0 W/m2
18:18 34.3 °F 33.1 °F 30.4 in West 2.9 mph 12 mph 95% 0.01 in 0 W/m2
18:23 34.3 °F 33.1 °F 30.4 in WNW 4 mph 11 mph 95% 0.01 in 0 W/m2
18:28 34.3 °F 33.1 °F 30.4 in West 0.9 mph 8 mph 95% 0.01 in 0 W/m2
18:33 34.3 °F 33.1 °F 30.4 in NW 2.9 mph 4 mph 95% 0.01 in 0 W/m2
18:38 34.3 °F 33.1 °F 30.4 in WNW 4 mph 7 mph 95% 0.01 in 0 W/m2
18:44 34.3 °F 33.1 °F 30.4 in NW 4.9 mph 7 mph 95% 0.01 in 0 W/m2
18:49 34.3 °F 33.1 °F 30.4 in WNW 4 mph 10 mph 95% 0.01 in 0 W/m2
18:54 34.3 °F 33.1 °F 30.4 in West 2 mph 9 mph 95% 0.01 in 0 W/m2
18:59 34.3 °F 33.1 °F 30.4 in NW 4.9 mph 9 mph 95% 0 in 0 W/m2
19:04 34.3 °F 33.1 °F 30.4 in NW 0.9 mph 4 mph 95% 0 in 0 W/m2
19:09 34.3 °F 33.1 °F 30.4 in WSW 4.9 mph 8 mph 95% 0 in 0 W/m2
19:14 34.3 °F 33.1 °F 30.4 in WNW 4 mph 7 mph 95% 0 in 0 W/m2
19:19 34.3 °F 33.1 °F 30.4 in NW 2.9 mph 6 mph 95% 0 in 0 W/m2
19:24 34.3 °F 33.1 °F 30.4 in West 0.9 mph 4 mph 95% 0 in 0 W/m2
19:29 34.3 °F 33.1 °F 30.4 in NW 6.9 mph 9 mph 95% 0 in 0 W/m2
19:34 34.3 °F 33.1 °F 30.4 in WNW 10.1 mph 10 mph 95% 0 in 0 W/m2
19:39 34.3 °F 33.1 °F 30.4 in West 6.9 mph 10 mph 95% 0 in 0 W/m2
19:44 34.3 °F 33.1 °F 30.4 in WNW 4.9 mph 7 mph 95% 0 in 0 W/m2
19:49 34.3 °F 33.1 °F 30.4 in WNW 6.9 mph 7 mph 95% 0 in 0 W/m2
19:54 34.3 °F 33.1 °F 30.4 in West 4 mph 12 mph 95% 0 in 0 W/m2
19:59 34.5 °F 33.3 °F 30.4 in WNW 2.9 mph 7 mph 95% 0 in 0 W/m2
20:04 34.5 °F 33.3 °F 30.4 in NW 4 mph 11 mph 95% 0 in 0 W/m2
20:09 34.5 °F 33.3 °F 30.4 in WNW 10.1 mph 12 mph 95% 0 in 0 W/m2
20:14 34.5 °F 33.3 °F 30.4 in WSW 0.9 mph 10 mph 95% 0 in 0 W/m2
20:19 34.5 °F 33.3 °F 30.4 in WNW 2.9 mph 7 mph 95% 0 in 0 W/m2
20:24 34.5 °F 33.3 °F 30.4 in West 6.9 mph 9 mph 95% 0 in 0 W/m2
20:29 34.5 °F 33.3 °F 30.4 in NW 2 mph 7 mph 95% 0 in 0 W/m2
20:34 34.5 °F 33.3 °F 30.4 in West 6 mph 11 mph 95% 0 in 0 W/m2
20:39 34.5 °F 33.3 °F 30.4 in West 2 mph 6 mph 95% 0 in 0 W/m2
20:44 34.7 °F 33.4 °F 30.4 in WSW 2 mph 13 mph 95% 0 in 0 W/m2
20:49 34.7 °F 33.4 °F 30.4 in West 2.9 mph 7 mph 95% 0 in 0 W/m2
20:54 34.7 °F 33.4 °F 30.4 in NW 2.9 mph 13 mph 95% 0 in 0 W/m2
20:59 34.7 °F 33.4 °F 30.4 in WSW 4.9 mph 9 mph 95% 0 in 0 W/m2
21:04 34.9 °F 33.6 °F 30.4 in WSW 0.9 mph 6 mph 95% 0 in 0 W/m2
21:09 34.9 °F 33.6 °F 30.4 in West 2 mph 4 mph 95% 0 in 0 W/m2
21:14 34.9 °F 33.6 °F 30.4 in NW 2.9 mph 3 mph 95% 0 in 0 W/m2
21:19 34.9 °F 33.6 °F 30.4 in West 6 mph 7 mph 95% 0 in 0 W/m2
21:24 35.1 °F 33.8 °F 30.4 in WNW 4.9 mph 6 mph 95% 0 in 0 W/m2
21:29 35.1 °F 33.8 °F 30.4 in WNW 0.9 mph 2 mph 95% 0 in 0 W/m2
21:34 35.1 °F 33.8 °F 30.4 in ESE 0.9 mph 2 mph 95% 0 in 0 W/m2
21:39 35.1 °F 33.8 °F 30.4 in WSW 4 mph 6 mph 95% 0 in 0 W/m2
21:44 35.1 °F 33.8 °F 30.4 in Calm   6 mph 95% 0 in 0 W/m2
21:49 35.1 °F 33.8 °F 30.4 in Calm   2 mph 95% 0 in 0 W/m2
21:54 35.2 °F 34 °F 30.4 in NW 0.9 mph 6 mph 95% 0 in 0 W/m2
21:59 35.2 °F 34 °F 30.4 in NW 2 mph 4 mph 95% 0 in 0 W/m2
22:04 35.2 °F 34 °F 30.4 in West 0.9 mph 5 mph 95% 0 in 0 W/m2
22:09 35.2 °F 34 °F 30.4 in West 2 mph 7 mph 95% 0 in 0 W/m2
22:14 35.2 °F 34 °F 30.4 in WSW 2.9 mph 6 mph 95% 0 in 0 W/m2
22:19 35.2 °F 34 °F 30.4 in Calm   4 mph 95% 0 in 0 W/m2
22:24 35.2 °F 34 °F 30.4 in West 2.9 mph 9 mph 95% 0 in 0 W/m2
22:29 35.2 °F 34 °F 30.4 in NW 2 mph 6 mph 95% 0 in 0 W/m2
22:34 35.2 °F 34 °F 30.4 in WSW 2 mph 9 mph 95% 0 in 0 W/m2
22:39 35.2 °F 34 °F 30.4 in WNW 2.9 mph 6 mph 95% 0 in 0 W/m2
22:44 35.2 °F 34 °F 30.4 in WNW 2 mph 10 mph 95% 0 in 0 W/m2
22:49 35.4 °F 34.2 °F 30.4 in West 6 mph 11 mph 95% 0 in 0 W/m2
22:54 35.4 °F 34.2 °F 30.4 in SW 4.9 mph 13 mph 95% 0 in 0 W/m2
22:59 35.4 °F 34.2 °F 30.4 in SW 2 mph 6 mph 95% 0 in 0 W/m2
23:04 35.4 °F 34.2 °F 30.4 in West 4 mph 13 mph 95% 0 in 0 W/m2
23:09 35.4 °F 34.2 °F 30.4 in WSW 6 mph 13 mph 95% 0 in 0 W/m2
23:14 35.8 °F 34.5 °F 30.4 in WNW 6.9 mph 9 mph 95% 0 in 0 W/m2
23:19 35.8 °F 34.5 °F 30.4 in SW 6 mph 11 mph 95% 0 in 0 W/m2
23:24 35.8 °F 34.5 °F 30.4 in West 6.9 mph 14 mph 95% 0 in 0 W/m2
23:29 35.8 °F 34.5 °F 30.4 in SW 6.9 mph 13 mph 95% 0 in 0 W/m2
23:34 35.8 °F 34.5 °F 30.4 in West 4 mph 9 mph 95% 0 in 0 W/m2
23:39 35.8 °F 34.5 °F 30.4 in West 6 mph 8 mph 95% 0 in 0 W/m2
23:44 35.8 °F 34.5 °F 30.4 in West 6 mph 9 mph 95% 0 in 0 W/m2
23:49 35.8 °F 34.5 °F 30.5 in WNW 4 mph 9 mph 95% 0 in 0 W/m2
23:54 35.8 °F 34.5 °F 30.5 in WNW 2.9 mph 10 mph 95% 0 in 0 W/m2
23:59 35.8 °F 34.5 °F 30.5 in WSW 2.9 mph 11 mph 95% 0 in 0 W/m2
Juneau County Weather
Compliments of Weather Underground - 4 mb